This demonstration page uses our WeatherBlox Daily Observations layout. Learn more.

Left ArrowRight Arrow

Hourly Observations for August 22, 2022

Temp ( °F °C ) Dew Point ( °F °C ) Humidity (%) Winds ( mph kmh ) Pressure ( in mb ) Visibility ( mi km ) Precip ( " mm )
12:52 am 00:52 Clear 69 20.6 64 17.8 84 84 SSE 5 7 30.08 1019 10 16 0.00 0.00
1:52 am 01:52 Clear 67 19.4 63 17.2 87 87 SSE 7 11 30.09 1019 10 16 0.00 0.00
2:52 am 02:52 Clear 66 18.9 63 17.2 90 90 SE 6 9 30.09 1019 10 16 0.00 0.00
3:52 am 03:52 Clear 65 18.3 63 17.2 93 93 ESE 3 6 30.09 1019 10 16 0.00 0.00
4:52 am 04:52 Clear 65 18.3 62 16.7 90 90 E 3 6 30.09 1019 10 16 0.00 0.00
5:52 am 05:52 Clear 59 15 58 14.4 96 96 N 3 6 30.09 1019 9 14 0.00 0.00
6:39 am 06:39 Mostly Clear with Patchy Fog 59 15 58 14.4 96 96 NNW 5 7 30.10 1019 8 13 0.00 0.00
6:52 am 06:52 Partly Cloudy with Patchy Fog 58 14.4 58 14.4 100 100 NW 5 7 30.10 1019 8 13 0.00 0.00
7:52 am 07:52 Partly Cloudy with Mist and Fog 62 16.7 60 15.6 93 93 Calm 30.11 1020 6 10 0.00 0.00
8:52 am 08:52 Partly Cloudy with Mist and Fog 66 18.9 64 17.8 93 93 Calm 30.11 1020 6 10 0.00 0.00
9:52 am 09:52 Mostly Sunny 72 22.2 65 18.3 79 79 VRB 3 6 30.11 1020 7 11 0.00 0.00
10:52 am 10:52 Mostly Sunny 75 23.9 65 18.3 71 71 ESE 5 7 30.11 1020 10 16 0.00 0.00
11:52 am 11:52 Mostly Sunny 78 25.6 64 17.8 62 62 SW 3 6 30.09 1019 10 16 0.00 0.00
12:52 pm 12:52 Partly Cloudy 80 26.7 62 16.7 54 54 Calm 30.08 1019 10 16 0.00 0.00
1:52 pm 13:52 Partly Cloudy 82 27.8 63 17.2 53 53 VRB 5 7 30.07 1018 10 16 0.00 0.00
2:52 pm 14:52 Partly Cloudy 82 27.8 62 16.7 51 51 VRB 3 6 30.05 1018 10 16 0.00 0.00
3:52 pm 15:52 Partly Cloudy 84 28.9 62 16.7 48 48 VRB 3 6 30.04 1017 10 16 0.00 0.00
4:52 pm 16:52 Partly Cloudy 83 28.3 61 16.1 48 48 VRB 6 9 30.03 1017 10 16 0.00 0.00
5:52 pm 17:52 Mostly Sunny 83 28.3 61 16.1 48 48 ESE 7 11 30.02 1017 10 16 0.00 0.00
6:52 pm 18:52 Mostly Sunny 82 27.8 61 16.1 49 49 E 8 13 30.01 1016 10 16 0.00 0.00
7:52 pm 19:52 Sunny 79 26.1 62 16.7 56 56 E 8 13 30.00 1016 10 16 0.00 0.00
8:52 pm 20:52 Clear 77 25 63 17.2 62 62 ESE 6 9 30.01 1016 10 16 0.00 0.00
9:52 pm 21:52 Clear 72 22.2 63 17.2 73 73 SE 6 9 30.02 1017 10 16 0.00 0.00
10:52 pm 22:52 Clear 71 21.7 62 16.7 73 73 SSE 7 11 30.02 1017 10 16 0.00 0.00
11:52 pm 23:52 Clear 70 21.1 62 16.7 76 76 SSE 6 9 30.02 1017 10 16 0.00 0.00

Powered by AerisWeather